• In Russia
  • List of Countries
  • For 7 days
  • Water Temperature
  • Satellite Maps
  • Weather Map
  • Weather Widgets
  • user-avatar
    Login

    Hourly Weather Lezhe

    Today, 26 July, Wednesday

    Time Temperature Precipitation Wind Pressure Humidity
    00:00 +20°C° 0.9 mm 2 mps 730 mmHg 80%
    01:00 +20°C° 0.9 mm 2 mps 730 mmHg 82%
    02:00 +19°C° 0.2 mm 2 mps 730 mmHg 83%
    03:00 +19°C° 0.2 mm 2 mps 730 mmHg 84%
    04:00 +19°C° 0.2 mm 2 mps 729 mmHg 85%
    05:00 +20°C° 0.3 mm 2 mps 729 mmHg 80%
    06:00 +23°C° 0.3 mm 2 mps 730 mmHg 76%
    07:00 +25°C° 0.3 mm 2 mps 730 mmHg 71%
    08:00 +26°C° 0.6 mm 2 mps 730 mmHg 66%
    09:00 +27°C° 0.6 mm 3 mps 730 mmHg 62%
    10:00 +28°C° 0.6 mm 3 mps 730 mmHg 57%
    11:00 +28°C° 0.5 mm 3 mps 730 mmHg 56%
    12:00 +28°C° 0.5 mm 4 mps 730 mmHg 56%
    13:00 +28°C° 0.5 mm 4 mps 730 mmHg 55%
    14:00 +28°C° 0.2 mm 4 mps 730 mmHg 55%
    15:00 +28°C° 0.2 mm 3 mps 730 mmHg 54%
    16:00 +28°C° 0.2 mm 3 mps 730 mmHg 53%
    17:00 +26°C° 0.2 mm 3 mps 730 mmHg 61%
    18:00 +24°C° 0.2 mm 2 mps 730 mmHg 68%
    19:00 +21°C° 0.2 mm 2 mps 730 mmHg 75%
    20:00 +22°C° 0.2 mm 1 mps 730 mmHg 79%
    21:00 +21°C° 0.2 mm 1 mps 731 mmHg 83%
    22:00 +20°C° 0.2 mm 1 mps 731 mmHg 87%
    23:00 +20°C° 0.1 mm 1 mps 731 mmHg 87%

    Tomorrow, 27 July, Thursday

    Time Temperature Precipitation Wind Pressure Humidity
    00:00 +19°C° 0.1 mm 1 mps 731 mmHg 87%
    01:00 +19°C° 0.1 mm 1 mps 731 mmHg 87%
    02:00 +19°C° 0.1 mm 1 mps 731 mmHg 87%
    03:00 +19°C° 0.1 mm 1 mps 731 mmHg 87%
    04:00 +19°C° 0.1 mm 1 mps 731 mmHg 86%
    05:00 +20°C° 0.1 mm 1 mps 731 mmHg 81%
    06:00 +21°C° 0.1 mm 1 mps 732 mmHg 75%
    07:00 +23°C° 0.1 mm 1 mps 732 mmHg 69%
    08:00 +25°C° 0.1 mm 2 mps 732 mmHg 61%
    09:00 +26°C° 0.1 mm 2 mps 732 mmHg 52%
    10:00 +28°C° 0.1 mm 2 mps 732 mmHg 44%
    11:00 +29°C° 0.2 mm 3 mps 732 mmHg 43%
    12:00 +29°C° 0.2 mm 3 mps 732 mmHg 42%
    13:00 +30°C° 0.2 mm 4 mps 732 mmHg 41%
    14:00 +29°C° 0.2 mm 4 mps 732 mmHg 43%
    15:00 +29°C° 0.2 mm 4 mps 732 mmHg 46%
    16:00 +28°C° 0.2 mm 4 mps 732 mmHg 48%
    17:00 +27°C° 0.1 mm 3 mps 733 mmHg 55%
    18:00 +25°C° 0.1 mm 3 mps 733 mmHg 61%
    19:00 +23°C° 0.1 mm 2 mps 733 mmHg 68%
    20:00 +21°C° 0 mm 2 mps 734 mmHg 70%
    21:00 +20°C° 0 mm 2 mps 734 mmHg 73%
    22:00 +20°C° 0 mm 2 mps 735 mmHg 75%
    23:00 +19°C° 0 mm 2 mps 735 mmHg 75%

    Day after tomorrow, 28 July, Friday

    Time Temperature Precipitation Wind Pressure Humidity
    00:00 +19°C° 0 mm 2 mps 735 mmHg 74%
    01:00 +18°C° 0 mm 2 mps 735 mmHg 74%
    02:00 +18°C° 0 mm 2 mps 735 mmHg 74%
    03:00 +18°C° 0 mm 2 mps 736 mmHg 74%
    04:00 +18°C° 0 mm 2 mps 736 mmHg 73%
    05:00 +19°C° 0 mm 2 mps 736 mmHg 66%
    06:00 +21°C° 0 mm 2 mps 736 mmHg 59%
    07:00 +24°C° 0 mm 2 mps 736 mmHg 52%
    08:00 +26°C° 0 mm 1 mps 737 mmHg 46%
    09:00 +28°C° 0 mm 1 mps 737 mmHg 40%
    10:00 +30°C° 0 mm 1 mps 737 mmHg 34%
    11:00 +31°C° 0 mm 2 mps 737 mmHg 33%
    12:00 +33°C° 0 mm 3 mps 737 mmHg 32%
    13:00 +34°C° 0 mm 3 mps 737 mmHg 31%
    14:00 +33°C° 0 mm 3 mps 737 mmHg 33%
    15:00 +33°C° 0 mm 3 mps 736 mmHg 35%
    16:00 +33°C° 0 mm 3 mps 736 mmHg 37%
    17:00 +29°C° 0 mm 2 mps 737 mmHg 45%
    18:00 +27°C° 0 mm 2 mps 737 mmHg 53%
    19:00 +24°C° 0 mm 1 mps 737 mmHg 62%
    20:00 +24°C° 0 mm 1 mps 738 mmHg 63%
    21:00 +23°C° 0 mm 1 mps 738 mmHg 63%
    22:00 +23°C° 0 mm 1 mps 739 mmHg 64%
    23:00 +22°C° 0 mm 1 mps 739 mmHg 64%

    29 July, Saturday

    Time Temperature Precipitation Wind Pressure Humidity
    00:00 +22°C° 0 mm 1 mps 739 mmHg 63%
    01:00 +22°C° 0 mm 1 mps 739 mmHg 63%
    02:00 +22°C° 0 mm 1 mps 739 mmHg 63%
    03:00 +21°C° 0 mm 2 mps 739 mmHg 63%
    04:00 +20°C° 0 mm 2 mps 739 mmHg 63%
    05:00 +23°C° 0 mm 2 mps 739 mmHg 58%
    06:00 +25°C° 0 mm 1 mps 739 mmHg 53%
    07:00 +28°C° 0 mm 1 mps 739 mmHg 48%
    08:00 +30°C° 0 mm 1 mps 740 mmHg 44%
    09:00 +32°C° 0 mm 1 mps 740 mmHg 39%
    10:00 +34°C° 0 mm 1 mps 740 mmHg 34%
    11:00 +35°C° 0 mm 2 mps 740 mmHg 33%
    12:00 +36°C° 0 mm 3 mps 739 mmHg 31%
    13:00 +37°C° 0 mm 3 mps 739 mmHg 30%
    14:00 +36°C° 0 mm 3 mps 739 mmHg 31%
    15:00 +36°C° 0 mm 3 mps 739 mmHg 33%
    16:00 +35°C° 0 mm 3 mps 739 mmHg 34%
    17:00 +32°C° 0 mm 2 mps 739 mmHg 40%
    18:00 +29°C° 0 mm 2 mps 739 mmHg 45%
    19:00 +27°C° 0 mm 1 mps 739 mmHg 51%
    20:00 +26°C° 0 mm 1 mps 739 mmHg 52%
    21:00 +26°C° 0 mm 1 mps 739 mmHg 52%
    22:00 +25°C° 0 mm 1 mps 740 mmHg 53%
    23:00 +25°C° 0 mm 1 mps 740 mmHg 53%

    30 July, Sunday

    Time Temperature Precipitation Wind Pressure Humidity
    00:00 +25°C° 0 mm 1 mps 740 mmHg 53%
    01:00 +24°C° 0 mm 1 mps 739 mmHg 53%
    02:00 +24°C° 0 mm 1 mps 739 mmHg 54%
    03:00 +24°C° 0 mm 1 mps 739 mmHg 54%
    04:00 +24°C° 0 mm 1 mps 739 mmHg 55%
    05:00 +26°C° 0 mm 1 mps 739 mmHg 51%
    06:00 +28°C° 0 mm 1 mps 739 mmHg 47%
    07:00 +30°C° 0 mm 1 mps 739 mmHg 44%
    08:00 +31°C° 0 mm 1 mps 739 mmHg 40%
    09:00 +33°C° 0 mm 1 mps 739 mmHg 36%
    10:00 +35°C° 0 mm 1 mps 739 mmHg 32%
    11:00 +37°C° 0 mm 2 mps 739 mmHg 31%
    12:00 +37°C° 0 mm 3 mps 739 mmHg 29%
    13:00 +37°C° 0 mm 4 mps 738 mmHg 28%
    14:00 +37°C° 0 mm 4 mps 738 mmHg 30%
    15:00 +36°C° 0 mm 3 mps 738 mmHg 31%
    16:00 +36°C° 0 mm 3 mps 738 mmHg 32%
    17:00 +34°C° 0 mm 3 mps 737 mmHg 38%
    18:00 +30°C° 0 mm 2 mps 737 mmHg 43%
    19:00 +28°C° 0 mm 2 mps 737 mmHg 49%
    20:00 +27°C° 0 mm 2 mps 738 mmHg 50%
    21:00 +27°C° 0 mm 1 mps 738 mmHg 50%
    22:00 +26°C° 0 mm 1 mps 738 mmHg 51%
    23:00 +26°C° 0 mm 1 mps 738 mmHg 51%

    31 July, Monday

    Time Temperature Precipitation Wind Pressure Humidity
    00:00 +26°C° 0 mm 1 mps 738 mmHg 51%
    01:00 +26°C° 0 mm 1 mps 738 mmHg 51%
    02:00 +25°C° 0 mm 1 mps 738 mmHg 51%
    03:00 +25°C° 0 mm 1 mps 738 mmHg 52%
    04:00 +25°C° 0 mm 1 mps 738 mmHg 52%
    05:00 +27°C° 0 mm 1 mps 738 mmHg 49%
    06:00 +29°C° 0 mm 2 mps 738 mmHg 47%
    07:00 +30°C° 0 mm 2 mps 738 mmHg 44%
    08:00 +32°C° 0 mm 2 mps 738 mmHg 40%
    09:00 +35°C° 0 mm 2 mps 738 mmHg 35%
    10:00 +38°C° 0 mm 2 mps 738 mmHg 31%
    11:00 +38°C° 0 mm 3 mps 738 mmHg 30%
    12:00 +39°C° 0 mm 3 mps 738 mmHg 28%
    13:00 +40°C° 0 mm 4 mps 737 mmHg 27%
    14:00 +40°C° 0 mm 4 mps 737 mmHg 29%
    15:00 +38°C° 0 mm 4 mps 737 mmHg 31%
    16:00 +37°C° 0 mm 3 mps 737 mmHg 32%
    17:00 +35°C° 0 mm 3 mps 737 mmHg 37%
    18:00 +32°C° 0 mm 2 mps 737 mmHg 41%
    19:00 +30°C° 0 mm 2 mps 737 mmHg 45%
    20:00 +29°C° 0 mm 2 mps 737 mmHg 45%
    21:00 +28°C° 0 mm 2 mps 738 mmHg 46%
    22:00 +27°C° 0 mm 2 mps 738 mmHg 46%
    23:00 +27°C° 0 mm 2 mps 738 mmHg 46%
    Show more